Regional Weather Roundup
Issued by NWS

Home | Current Version | Previous Version | Text Only | Print | Product List | Glossary On
Versions: 1 2 3 4 5 6 7 8 9 10 11 12 13 14 15 16 17 18 19 20 21 22 23 24 25 26 27 28 29 30 31 32 33 34 35 36 37 38 39 40 41 42 43 44 45 46 47 48 49 50
000
ASUS43 KMPX 251701
RWRMN
WEATHER ROUNDUP FOR MINNESOTA
NATIONAL WEATHER SERVICE TWIN CITIES/CHANHASSEN MN
1200 PM CDT SUN SEP 25 2016


NOTE: "FAIR" INDICATES FEW OR NO CLOUDS BELOW 12,000 FEET WITH NO
SIGNIFICANT WEATHER AND/OR OBSTRUCTIONS TO VISIBILITY. N/A MEANS
CURRENT SKY AND/OR WEATHER CONDITIONS ARE NOT AVAILABLE.

MNZ060>063-068>070-251800-
   Twin Cities Metro

CITY           SKY/WX    TMP DP  RH WIND       PRES   REMARKS
TWIN CITIES    PTSUNNY   65  53  65 W14G22    29.90S
ST PAUL        MOSUNNY   63  53  70 SW12G21   29.90S
CRYSTAL        MOSUNNY   65  52  62 SW12      29.88S
BLAINE         PTSUNNY   64  54  68 W14G20    29.88S
LAKEVILLE      SUNNY     64  54  68 SW8G18    29.91R
EDEN PRAIRIE   PTSUNNY   65  53  65 W10G21    29.89S
LAKEVILLE      SUNNY     64  54  68 SW8G18    29.91R
SOUTH ST PAUL  MOSUNNY   64  53  67 SW16      29.90R
LAKE ELMO      FAIR      63  55  77 SW13      29.90R
$$
MNZ001>005-007-008-013>017-022>024-027-028-251800-
   Northwest Minnesota

CITY           SKY/WX    TMP DP  RH WIND       PRES   REMARKS
BEMIDJI        CLOUDY    57  51  81 SW12G20   29.75S
HALLOCK        CLOUDY    55  54  94 NW24G30   29.68R
ROSEAU         PTSUNNY   59  52  77 SW12      29.67R
WARROAD        PTSUNNY   61  52  72 SW14G21   29.67S
THIEF RVR FALL LGT RAIN  54  53  97 SW13      29.71S FOG
CROOKSTON      CLOUDY    55  54  94 NW22G32   29.74R FOG
FOSSTON        CLOUDY    52  50  93 SW20      29.75R FOG
DETROIT LAKES  CLOUDY    55  54  94 W14G23    29.80S FOG
MOORHEAD       CLOUDY    57  52  82 W18G29    29.82R
PARK RAPIDS    CLOUDY    59  50  72 SW15      29.78F
MAHNOMEN       CLOUDY    54  53  95 W16G22    29.76S
$$
MNZ006-009>011-018-025>026-251800-
   North Central Minnesota

CITY           SKY/WX    TMP DP  RH WIND       PRES   REMARKS
BAUDETTE       MOSUNNY   62  52  69 SW17G23   29.66S
FLAG ISLAND    PTSUNNY   61  54  77 SW9       29.63S
INTL FALLS     CLOUDY    67  63  87 S8G20     29.66F
WASKISH        CLOUDY    61  54  77 S10G18    29.70F
BIG FORK       SUNNY     66  55  68 S16G23    29.72F
GRAND RAPIDS   PTSUNNY   65  54  67 SW16G23   29.78S
ORR            MOSUNNY   64  61  88 SE12      29.70F
COOK           MOSUNNY   66  63  88 S10G18    29.74F
WALKER         CLOUDY    57  51  80 SW14G23   29.76F
$$
MNZ012-019>021-037-251800-
   Northeast Minnesota

CITY           SKY/WX    TMP DP  RH WIND       PRES   REMARKS
DULUTH         CLOUDY    67  62  84 S13       29.78F
ELY            DRIZZLE   61  61 100 CALM      29.78F
HIBBING        CLOUDY    64  60  87 S9        29.75F
EVELETH        MOSUNNY   68  61  80 S9        29.76F
DULUTH HARBOR  CLOUDY    64  63  94 SW12      29.78F
TWO HARBORS    CLOUDY    64  61  88 CALM      29.78F FOG
SILVER BAY     DRIZZLE   63  61  94 SE3       29.78F
GRAND MARAIS     N/A     61  61 100 NE8       29.83F
G MARAIS ARPRT HVY RAIN  57  54  88 E6        29.86F
$$
MNZ029>031-032-039>041-046>048-054>057-064-251800-
   West Central Minnesota

CITY           SKY/WX    TMP DP  RH WIND       PRES   REMARKS
FERGUS FALLS   CLOUDY    57  50  77 W20       29.87R
MORRIS         CLOUDY    61  54  77 W20G26    29.89R
ALEXANDRIA     LGT RAIN  57  54  89 W17G26    29.87R
ELBOW LAKE     CLOUDY    58  52  81 NW16      29.87R
GLENWOOD       PTSUNNY   59  54  82 W17       29.87R
BENSON         CLOUDY    63  52  67 NW20      29.90R
MADISON          N/A     64  54  68 W21G32    29.93R
WILLMAR        PTSUNNY   63  55  77 W17G24    29.91R
$$
MNZ033>034-036-042>043-049>051-058-059-251800-
   Central Minnesota

CITY           SKY/WX    TMP DP  RH WIND       PRES   REMARKS
ST CLOUD       CLOUDY    60  53  77 SW12      29.87F
SAUK CENTRE    CLOUDY    60  51  73 W16G25    29.86R
PAYNESVILLE    CLOUDY    60  55  82 W15G21    29.89S
AITKIN         CLOUDY    61  50  67 SW13      29.81R
PINE RIVER     CLOUDY    57  52  82 SW8       29.83F
BRAINERD       CLOUDY    58  52  80 SW13      29.83S
STAPLES        CLOUDY    59  52  77 W13       29.82S
LONG PRAIRIE   CLOUDY    59  50  72 S9        29.85S
LITTLE FALLS   CLOUDY    57  50  77 SW10      29.85S
LITCHFIELD     CLOUDY    61  54  77 W9        29.91S
BUFFALO        CLOUDY    59  50  74 SW10G20   29.91R
MAPLE LAKE     CLOUDY    60  54  79 SW8G21    29.90S
HUTCHINSON     CLOUDY    61  54  76 SW9       29.93S
$$
MNZ037-044-045-052-053-251800-
   East Central Minnesota

CITY           SKY/WX    TMP DP  RH WIND       PRES   REMARKS
PRINCETON      CLOUDY    61  54  77 SW15G22   29.88R
MORA           PTSUNNY   59  52  77 SW12G20   29.87R
CAMBRIDGE      MOSUNNY   66  52  59 SW15      29.85S
MOOSE LAKE     MOSUNNY   68  57  68 S14G20    29.79S
HINCKLEY       FAIR      64  55  72 W14G21    29.84R
CLOQUET        CLOUDY    66  61  82 S13       29.79F
MCGREGOR       PTSUNNY   63  54  72 SW15G22   29.81S
$$
MNZ071>073-080-081-089-090-097-098-251800-
   Southwest Minnesota

CITY           SKY/WX    TMP DP  RH WIND       PRES   REMARKS
MONTEVIDEO     CLOUDY    63  54  72 NW15G30   29.94R
GRANITE FALLS  CLOUDY    64  54  69 W24G30    29.95R
CANBY          CLOUDY    60  52  75 W20G30    29.97R
MARSHALL       CLOUDY    61  51  70 W24G31    29.95R
REDWOOD FALLS  CLOUDY    62  51  67 W18       29.93R
OLIVIA         CLOUDY    63  52  67 W17G24    29.91S
PIPESTONE      CLOUDY    59  50  72 NW18G32   30.01R
WINDOM         CLOUDY    61  50  67 W17G25    29.98S
JACKSON        CLOUDY    63  48  59 W18G24    30.00S
TRACY          CLOUDY    62  53  71 W14G22    29.97R
$$
MNZ065>067-074>077-082>085-091>093-251800-
   South Central Minnesota

CITY           SKY/WX    TMP DP  RH WIND       PRES   REMARKS
MANKATO        MOSUNNY   64  52  64 W20G25    29.95R
ST JAMES       CLOUDY    63  52  67 W17G26    29.98R
FAIRMONT       MOSUNNY   64  51  62 W20G25    29.99R
GLENCOE        CLOUDY    61  55  80 SW7       29.93R
FARIBAULT      SUNNY     66  54  63 SW14G22   29.93S
OWATONNA       MOSUNNY   66  52  59 SW10G20   29.95R
WASECA         CLOUDY    64  52  63 SW20      29.96S
ALBERT LEA     CLOUDY    63  55  77 SW9       29.97S
$$
MNZ078>079-086>088-094>096-251800-
   Southeast Minnesota

CITY           SKY/WX    TMP DP  RH WIND       PRES   REMARKS
ROCHESTER      CLOUDY    65  53  65 W12       29.96R
RED WING       CLOUDY    64  55  72 W9        29.89S
STANTON        MOSUNNY   66  54  64 W13       29.91S
DODGE CENTER   CLOUDY    61  54  77 SW10      29.95S
WINONA         CLOUDY    70  63  78 W3        29.92R
AUSTIN         PTSUNNY   63  54  72 SW14      29.97S
PRESTON        CLOUDY    65  61  85 SW10      29.96S
$$
ABBREVIATIONS USED IN REMARKS
   TC - TEMPERATURES IN CELSIUS
  WCI - WIND CHILL INDEX
   HX - HEAT INDEX
  VSB - VISIBILITY
$$



USA.gov is the U.S. government's official web portal to all federal, state and local government web resources and services.